Regional Weather Roundup
Issued by NWS Northern Indiana

Home | Current Version | Previous Version | Graphics & Text | Print | Product List | Glossary On
Versions: 1 2 3 4 5 6 7 8 9 10 11 12 13 14 15 16 17 18 19 20 21 22 23 24 25 26 27 28 29 30 31 32 33 34 35 36 37 38 39 40 41 42 43 44 45 46 47 48 49 50
000
ASUS43 KIWX 291100
RWRIWX

KIWX WEATHER ROUNDUP
NATIONAL WEATHER SERVICE NORTHERN INDIANA
600 AM EST THU JAN 29 2015

NOTE: "FAIR" INDICATES FEW OR NO CLOUDS BELOW 12,000 FEET WITH NO
SIGNIFICANT WEATHER AND/OR OBSTRUCTIONS TO VISIBILITY.

* THESE STATIONS ARE NOT UNDER NWS QUALITY CONTROL. THEY ALSO MAY NOT
  REPORT WEATHER SUCH AS PRECIPITATION OR FOG.

INZ001>027-291200-
NORTHERN INDIANA

CITY           SKY/WX    TMP DP  RH WIND       PRES   REMARKS
GARY*          MOCLDY    37  23  56 S6        29.70F
SOUTH BEND     CLOUDY    36  25  64 S9        29.74F
GOSHEN         CLOUDY    34  25  69 S13       29.75F WCI  25
ANGOLA*        PTCLDY    28  25  86 S10       29.77F WCI  19
FORT WAYNE     CLOUDY    35  26  69 S10       29.79F WCI  27
PERU/GRISSOM   CLOUDY    37  27  66 S14       29.75F

$$
INZ028>050-291200-
CENTRAL INDIANA

CITY           SKY/WX    TMP DP  RH WIND       PRES   REMARKS
LAFAYETTE      MOCLDY    40  30  67 S10       29.74F
KOKOMO*        CLOUDY    37  27  65 S17       29.77F
MUNCIE*        CLOUDY    38  26  62 S16G29    29.78F
INDIANAPOLIS   CLOUDY    34  25  69 SE9       29.80F WCI  27

$$
MIZ043>046-050>051-056>058-064>065-071>073-077>080-291200-
SOUTHWEST LOWER MICHIGAN

CITY           SKY/WX    TMP DP  RH WIND       PRES   REMARKS
BATTLE CREEK   CLOUDY    32  23  69 S12       29.76F WCI  23
BENTON HARBOR  CLOUDY    33  25  72 SE7       29.72F WCI  27
COLDWATER*     CLOUDY    31  23  74 S9        29.77F WCI  22
HILLSDALE*     MOCLDY    28  24  85 SE9       29.78F WCI  19
HOLLAND        CLOUDY    32  26  78 E6        29.75F WCI  26
GRAND RAPIDS   CLOUDY    30  25  81 E7        29.76F WCI  23
KALAMAZOO      CLOUDY    32  24  72 S9        29.75F WCI  24
STURGIS*       CLOUDY    32  25  74 SE7       29.75F WCI  26
THREE RIVERS*  FAIR      33  25  72 S8        29.75F WCI  25

$$
OHZ001>008-015>018-024>025-291200-
NORTHWEST OHIO

CITY           SKY/WX    TMP DP  RH WIND       PRES   REMARKS
DEFIANCE       LGT RAIN  33  24  69 SE6       29.83F WCI  28
FINDLAY        CLOUDY    32  21  64 S16       29.85F WCI  21
TOLEDO EXPRESS MIX PCPN  29  21  72 SE5       29.86F WCI  24
TOLEDO METCALF CLOUDY    32  20  61 S13       29.88F WCI  22
LIMA           LGT RAIN  36  23  59 S23G33    29.84F

$$
AND FOR LAKE MICHIGAN COASTAL AND OPEN LAKE BUOY OBSERVATIONS

STATION/POSITION TEMP    WIND        PRES    VSBY  WAVE
                 AIR SEA DIR/SP/G                  HT/PER
                 (F)     (DEG/KT/KT) (MB)    (MI)  (FT/S)
CALUMET HARBOR    36     180/  6/  9   N/A
MICHIGAN CITY     36     140/ 17/ 23   N/A
SAINT JOSEPH      35     130/  5/ 12 1007.5F

$$
&&


USA.gov is the U.S. government's official web portal to all federal, state and local government web resources and services.